Wind_Speed
7 4 2 3 5 8 11 13 15 17 18 19 19 21 22 23 24 26 28 29 30 33 34 34 36 35 33 34 34 32 32 25 14 26 25 24 26 16 21 24 23 23 25
7 4 2 2 6 9 12 14 16 18 19 20 22 24 24 24 26 27 32 34 36 39 40 39 39 36 35 36 35 34 31 28 24 22 30 39 39 25 23 27 25 25 27
7 4 2 3 7 10 13 14 16 18 20 22 24 24 25 25 27 31 32 36 39 42 44 45 42 40 39 35 34 34 31 29 24 24 26 26 42 40 26 25 30 31 33
7 4 2 5 8 11 13 16 17 19 21 23 23 24 24 27 30 34 32 33 41 44 45 45 43 42 41 38 35 35 32 28 24 24 26 24 25 31 34 25 28 29 28
6 4 3 6 9 11 13 16 17 19 21 22 23 24 25 29 31 39 42 41 40 40 40 42 42 44 44 42 36 34 32 29 24 19 20 20 22 21 22 22 20 23 29
5 4 4 7 9 11 14 16 18 19 19 21 22 24 28 30 40 43 48 43 39 38 37 38 41 40 42 43 45 43 32 28 24 21 22 21 25 22 21 21 23 22 12
6 3 4 6 8 10 14 17 17 18 19 20 21 24 26 32 42 48 50 43 37 37 38 36 34 31 33 35 36 43 43 38 29 24 23 22 15 15 18 21 25 25 21
6 4 5 6 7 10 12 13 15 17 19 20 22 22 24 33 40 46 51 40 33 36 35 33 31 29 29 28 30 30 34 32 33 28 27 27 25 21 20 23 26 26 25
7 6 5 4 6 8 12 14 14 15 18 19 21 24 27 32 42 47 59 43 32 33 27 28 27 26 25 26 25 25 24 25 28 32 34 33 32 32 26 17 20 20 17
7 5 3 3 5 8 12 14 13 16 15 18 23 20 25 31 43 56 60 45 27 24 24 21 26 24 20 19 18 21 21 21 20 18 29 32 31 29 27 30 27 20 20
6 4 3 5 6 9 11 11 12 16 17 18 15 18 22 31 42 57 64 45 26 20 17 14 16 15 16 14 13 16 16 12 15 16 16 18 21 24 24 23 26 21 20
6 5 5 7 10 11 11 12 15 15 17 16 16 19 22 30 38 51 57 53 47 25 19 14 8 3 2 7 7 12 10 10 8 10 13 15 17 20 16 18 18 23 26
7 7 8 9 10 12 11 14 17 13 6 17 18 19 21 27 31 39 47 43 39 41 41 29 36 36 37 35 24 13 5 5 9 11 12 9 9 7 7 12 17 17 21
9 9 10 10 10 11 10 11 9 11 13 14 14 14 17 21 28 37 39 40 35 29 28 34 42 43 40 35 34 36 31 25 23 20 15 16 10 5 4 9 15 21 20
7 9 10 12 14 13 14 4 5 4 6 8 8 9 12 18 24 28 33 40 37 22 15 12 25 34 30 29 27 32 31 27 33 28 28 24 22 21 23 24 20 20 20
8 15 12 11 9 12 6 10 5 6 7 9 14 17 13 14 14 20 26 31 37 37 33 29 14 16 23 23 23 21 21 20 24 27 25 23 23 22 19 22 25 22 20
19 18 10 11 13 10 6 7 12 12 10 12 12 17 19 19 20 19 17 22 32 33 30 30 27 29 30 23 19 17 19 19 21 17 20 22 22 17 21 12 17 18 16
20 20 11 12 14 7 6 2 3 12 11 5 3 5 8 14 21 24 25 26 28 28 25 25 25 26 24 26 25 22 21 20 18 18 16 13 7 10 8 4 12 13 12
20 17 20 17 4 3 4 7 3 3 6 4 5 7 1 9 14 20 23 20 18 19 21 23 24 24 25 24 25 22 22 21 20 19 20 20 22 20 14 7 5 4 4
16 16 8 8 5 7 3 12 13 5 7 6 8 10 11 11 13 15 16 16 17 18 18 16 19 21 22 21 21 21 20 20 20 19 18 19 21 20 21 19 15 12 11
12 3 9 7 8 9 15 7 4 12 8 6 7 8 7 9 11 11 14 15 15 16 17 19 17 17 18 19 20 19 19 18 18 18 17 15 16 15 15 14 15 18 20
15 13 12 15 4 11 14 12 12 6 5 4 3 6 8 9 10 11 12 13 13 13 13 13 15 16 16 16 16 17 17 19 20 21 20 19 18 17 17 16 13 12 12
12 12 11 3 5 3 7 4 11 11 3 2 6 6 8 9 10 11 11 11 11 11 12 13 14 15 16 15 16 16 17 17 18 18 19 18 17 17 17 15 15 15 15
4 11 13 10 10 14 9 4 4 6 5 4 5 6 7 8 9 9 10 11 11 11 12 12 13 14 14 13 14 14 17 18 15 17 18 17 16 17 16 16 16 16 16
13 14 15 6 9 3 2 3 3 4 4 4 5 5 5 6 8 9 10 11 11 11 11 11 13 13 11 13 13 16 18 17 18 18 16 14 15 16 16 16 17 18 18
15 12 12 8 3 3 3 3 4 3 4 4 5 4 5 7 7 8 9 9 10 10 10 10 12 12 10 11 19 24 24 25 20 17 17 14 16 17 18 18 19 19 19
Wind_Direction
181 179 237 294 318 306 303 303 301 298 299 297 296 295 294 295 297 297 293 289 286 281 274 272 269 265 260 257 256 253 249 242 234 253 284 284 271 238 238 224 222 231 242
183 192 234 312 304 303 299 300 299 298 298 295 292 289 293 295 296 298 295 291 291 286 276 269 266 264 258 254 252 252 255 255 226 230 238 260 275 269 238 233 227 236 240
188 202 240 292 294 294 297 301 302 301 299 299 297 300 299 304 303 298 294 292 291 289 285 270 263 260 257 252 247 246 244 248 238 238 246 236 238 254 269 241 240 237 242
193 205 253 287 295 299 303 303 301 300 301 295 300 301 307 310 306 298 300 300 296 287 286 278 267 260 257 252 246 241 239 237 232 228 238 238 238 249 254 257 240 237 243
190 214 266 285 292 300 305 308 304 304 302 309 308 304 310 313 307 315 306 300 294 285 287 273 269 263 255 252 245 239 232 232 229 226 237 241 244 242 248 249 240 232 241
197 227 275 284 297 299 302 308 308 309 315 311 314 311 319 313 319 316 308 300 291 286 281 274 263 262 255 253 247 240 232 224 221 223 230 233 230 233 254 268 276 274 253
196 227 264 287 292 300 308 310 315 316 314 317 318 315 322 321 321 323 312 304 295 286 279 270 263 260 254 248 243 240 237 233 229 223 234 251 245 231 242 242 248 257 252
197 232 259 273 301 314 314 313 311 316 320 324 317 325 322 327 331 329 324 315 295 284 278 263 258 256 252 241 236 230 226 228 230 227 230 235 240 249 254 251 256 264 267
210 236 247 279 309 321 317 312 314 318 316 321 330 326 334 333 336 336 343 327 301 290 280 259 252 248 252 245 233 223 219 217 227 231 234 237 242 250 247 244 247 249 259
216 229 243 277 300 315 311 312 306 308 311 332 325 352 346 342 350 350 339 334 303 293 288 264 255 256 256 254 230 219 211 214 220 225 229 238 242 244 245 246 249 250 238
212 216 239 262 278 293 293 306 306 300 307 317 335 356 358 355 352 356 343 341 328 296 305 284 275 261 253 251 241 219 224 237 238 240 232 228 231 234 238 239 232 235 241
207 220 240 252 259 281 290 299 302 298 292 316 357 356 354 359 3 2 356 11 22 21 26 47 46 71 117 204 218 223 245 259 275 279 259 250 247 242 240 251 238 241 247
205 220 245 252 258 265 279 283 280 298 310 345 352 349 359 5 355 3 1 12 19 38 36 47 74 70 70 70 71 60 14 297 292 295 276 279 297 290 299 290 262 259 262
209 225 242 244 242 255 271 286 311 332 3 345 346 345 352 358 358 2 8 10 15 32 44 46 65 68 65 62 60 63 56 56 62 52 52 51 28 4 4 298 288 287 279
224 249 245 248 237 249 247 305 327 45 24 0 2 356 353 353 352 359 9 11 19 19 33 44 68 65 62 62 63 61 59 54 62 54 52 41 45 45 51 61 61 69 67
314 258 250 269 284 255 253 140 151 126 80 61 59 54 38 6 4 6 13 26 21 23 22 31 42 83 87 73 67 67 65 65 68 66 58 58 53 45 45 51 63 57 59
247 263 268 246 258 269 247 98 153 125 93 95 82 69 54 40 32 31 30 17 31 26 24 16 24 28 31 41 94 99 82 73 71 80 81 74 64 50 51 54 67 68 69
218 247 250 254 252 243 189 151 260 181 163 162 139 85 52 44 35 34 34 38 27 24 23 24 20 20 36 37 39 47 52 45 57 51 48 54 70 89 96 62 75 84 85
223 231 215 242 233 225 195 224 324 171 89 154 226 222 150 54 37 35 36 36 30 25 19 27 29 32 30 22 24 35 41 44 39 36 36 31 29 30 37 48 58 89 152
229 242 249 221 183 226 302 308 127 140 151 82 48 19 3 353 22 19 30 32 34 27 18 28 32 26 28 28 32 32 34 31 30 29 29 28 21 23 15 14 29 34 27
242 179 312 240 18 277 191 174 120 111 90 101 94 50 16 350 17 28 20 26 26 28 27 15 30 30 32 27 18 22 26 25 23 21 14 15 16 14 12 17 10 2 3
64 71 83 342 43 331 18 117 126 124 108 106 84 106 30 19 28 18 25 26 24 27 26 30 27 27 25 29 30 27 24 19 15 10 4 1 1 4 355 353 354 357 354
93 91 89 69 24 9 270 81 82 94 91 58 20 9 9 16 25 20 22 23 22 24 22 24 24 22 20 21 39 34 23 11 4 2 356 353 351 357 348 346 344 340 350
91 78 70 31 308 281 196 81 97 70 18 11 20 13 21 15 26 28 20 19 16 18 17 18 23 19 19 30 33 24 14 10 5 357 354 346 341 345 340 340 339 341 335
111 110 100 122 250 268 129 66 49 23 65 30 29 28 29 23 28 27 20 15 14 18 18 21 24 19 54 53 36 13 2 357 354 351 346 341 337 337 337 333 336 327 324
138 145 159 177 123 73 57 54 58 56 43 40 45 39 42 37 31 36 21 20 16 17 14 17 18 15 29 26 3 354 352 348 349 355 358 346 339 336 333 327 322 319 316
Height
808 810 812 813 812 813 812 811 809 807 805 803 801 798 795 792 790 787 783 779 775 771 768 763 758 757 754 751 749 749 749 755 756 731 751 744 749 753 756 757 760 765 767
806 808 810 809 810 810 809 808 806 804 801 798 795 792 789 788 785 782 778 774 769 764 758 754 749 747 742 741 739 737 734 736 747 748 742 745 747 746 747 751 751 755 758
804 805 806 806 807 807 806 804 802 799 797 794 791 788 785 782 780 777 772 767 761 755 749 742 737 735 732 730 729 729 729 729 731 732 732 741 736 745 742 740 743 745 748
800 801 802 803 804 804 802 800 798 795 792 789 786 783 780 776 773 768 762 756 750 743 736 729 725 723 721 720 720 720 723 724 727 730 733 737 738 734 736 738 739 736 745
796 798 799 801 801 800 799 797 794 791 788 785 782 779 775 772 766 761 754 745 736 728 722 715 711 708 709 708 710 710 714 717 721 724 726 727 728 728 727 727 723 732 741
793 795 796 798 798 797 796 794 790 787 784 782 779 775 771 766 762 753 744 732 722 715 707 701 697 694 695 696 698 701 705 709 711 716 718 718 719 720 722 723 722 728 735
790 792 793 794 794 793 792 790 787 785 782 778 775 771 766 761 753 743 731 719 709 701 694 688 684 683 683 684 687 690 696 701 705 708 710 711 711 716 721 721 721 720 721
787 789 790 791 790 789 788 786 784 783 780 776 772 766 761 756 746 733 719 704 693 687 681 677 675 673 673 674 678 681 686 691 697 702 705 707 710 713 716 717 717 716 715
783 785 786 786 786 786 785 783 782 781 778 774 768 763 759 751 740 724 709 695 682 674 669 667 666 665 666 668 672 675 680 683 689 694 697 700 704 707 712 714 713 715 712
779 781 782 783 784 783 783 782 781 780 774 770 765 762 756 747 733 718 703 689 676 666 662 660 660 661 663 664 667 672 677 679 683 687 690 694 698 700 704 706 708 710 708
776 777 778 780 781 781 781 780 779 776 773 768 762 759 754 746 733 717 699 686 674 665 660 657 656 657 660 664 666 670 674 677 681 685 687 689 692 694 695 697 700 702 702
772 774 775 777 778 777 778 777 775 772 767 762 758 755 753 745 736 722 707 689 681 667 662 658 656 657 658 662 666 670 673 677 680 682 684 685 686 688 689 692 694 697 697
768 771 772 774 774 774 773 771 768 764 762 761 758 757 752 747 739 729 719 704 693 682 677 672 664 664 664 667 669 672 675 677 680 683 683 683 684 686 687 689 690 692 693
764 766 768 770 770 768 767 763 762 761 762 763 759 759 754 748 742 733 726 714 705 697 693 683 674 673 675 677 678 679 681 682 682 683 685 685 685 685 686 685 686 686 686
761 764 764 763 762 761 760 759 761 762 765 764 763 760 756 751 746 741 732 725 715 708 701 696 689 683 686 689 692 687 689 692 687 690 689 691 690 690 688 687 687 686 688
761 760 756 756 755 753 754 757 760 760 762 763 762 758 756 754 750 744 737 733 723 714 708 700 697 695 694 698 700 702 701 701 699 698 699 700 698 698 697 696 693 693 693
759 756 752 754 754 752 751 754 759 762 764 762 762 759 758 757 752 746 742 736 731 724 721 716 711 706 703 701 703 706 708 708 706 704 704 705 705 707 702 706 703 700 701
749 755 751 749 747 749 747 751 753 758 757 761 761 760 758 757 754 750 745 739 735 733 732 728 723 719 715 714 712 711 711 711 710 711 710 709 710 707 708 708 704 702 704
751 748 747 745 744 747 744 747 751 749 754 759 759 759 758 756 754 753 750 747 745 742 738 735 733 731 727 724 721 719 718 717 718 717 715 714 713 712 711 710 708 706 707
743 740 741 741 746 744 745 743 748 750 753 756 759 760 758 755 755 754 753 751 749 748 745 741 740 736 734 733 730 728 727 727 725 724 723 721 719 717 715 713 711 710 709
732 736 732 740 744 742 742 745 743 750 754 759 762 763 761 759 757 756 755 754 753 751 750 747 745 743 741 740 738 734 733 732 731 729 728 727 723 722 721 719 717 714 711
744 745 742 749 749 749 744 744 749 752 754 757 758 760 760 759 759 759 759 758 757 756 754 752 750 749 747 745 744 743 743 741 738 737 734 730 727 725 724 721 719 718 717
745 748 752 752 752 751 751 748 750 753 756 755 758 760 760 760 760 761 760 761 760 759 757 755 753 752 751 749 749 750 749 747 746 743 741 736 733 731 729 725 723 721 719
744 744 747 750 753 756 754 750 754 756 757 759 759 760 762 763 762 764 764 763 762 760 759 757 757 756 755 755 754 754 752 749 748 745 743 740 737 733 731 728 725 724 723
744 747 750 756 757 753 752 754 756 757 759 761 761 764 764 765 765 765 765 765 764 762 762 761 761 760 758 757 757 756 753 750 748 745 743 741 738 734 732 730 728 726 724
747 749 752 754 755 757 757 758 761 763 764 765 766 767 767 767 768 768 769 770 768 766 765 764 764 763 761 760 757 754 751 747 746 743 741 740 737 734 732 731 729 726 722